Location: 433rd Scouts Home(Lloyd Manor Park, Etobicoke )
(43.6722°N, 79.5542°W)
Time: 08:12:35
(UTC-04:00)

Envisat - Pass Details

Date: 19 September 2021
Orbit: 764 x 766 km, 98.2° (Epoch: 20 October)

Event Time Altitude Azimuth Distance (km) Brightness Sun altitude
Rises 05:21:55 0° 28° (NNE) 3,240 7.0 -18.5°
Reaches altitude 10° 05:24:53 10° 46° (NE) 2,308 6.5 -18.0°
Maximum altitude 05:28:30 19° 91° (E) 1,742 5.7 -17.4°
Drops below altitude 10° 05:32:06 10° 137° (SE) 2,295 5.8 -16.8°
Sets 05:35:01 0° 155° (SSE) 3,215 6.3 -16.3°
